SFR214 FAOR-FACT

Flight info

Callsign SFR214
Flight time N/A
Altitude 38000
Route RAGUL3A RAGUL UQ10 DUMDO DCT ERDAS ERDAS1C
Aircraft B738/M-SDE2E3FGHIRWXY/LB1

Departure

Time 2026-05-01 14:31
Airport O.R. Tambo International Airport (FAOR)

Arrival

Time N/A
Airport Cape Town International Airport (FACT)
Time Latitude Longitude Altitude Speed Heading
2026-05-01 13:46 -26.13596 28.23265 5531 ft 0 kts 276°
2026-05-01 14:20 -26.13598 28.23289 5534 ft 4 kts 267°
2026-05-01 14:21 -26.13594 28.23318 5536 ft 4 kts 250°
2026-05-01 14:21 -26.13581 28.23344 5534 ft 4 kts 223°
2026-05-01 14:21 -26.13560 28.23357 5535 ft 2 kts 187°
2026-05-01 14:22 -26.13558 28.23357 5539 ft 0 kts 186°
2026-05-01 14:25 -26.13560 28.23357 5535 ft 1 kts 186°
2026-05-01 14:25 -26.13568 28.23356 5531 ft 2 kts 186°
2026-05-01 14:25 -26.13584 28.23354 5531 ft 3 kts 186°
2026-05-01 14:26 -26.13608 28.23351 5534 ft 4 kts 186°
2026-05-01 14:26 -26.13687 28.23343 5531 ft 7 kts 185°
2026-05-01 14:26 -26.13740 28.23338 5531 ft 8 kts 184°
2026-05-01 14:27 -26.13801 28.23331 5531 ft 9 kts 191°
2026-05-01 14:27 -26.13869 28.23312 5533 ft 11 kts 194°
2026-05-01 14:27 -26.13942 28.23287 5537 ft 12 kts 197°
2026-05-01 14:28 -26.14109 28.23235 5531 ft 14 kts 195°
2026-05-01 14:28 -26.14202 28.23207 5536 ft 14 kts 195°
2026-05-01 14:28 -26.14299 28.23211 5531 ft 14 kts 165°
2026-05-01 14:28 -26.14391 28.23238 5531 ft 13 kts 165°
2026-05-01 14:29 -26.14477 28.23270 5531 ft 13 kts 143°
2026-05-01 14:29 -26.14485 28.23363 5531 ft 13 kts 76°
2026-05-01 14:30 -26.14425 28.23502 5530 ft 5 kts 20°
2026-05-01 14:30 -26.14411 28.23506 5531 ft 7 kts 16°
2026-05-01 14:30 -26.14146 28.23588 5535 ft 74 kts 15°
2026-05-01 14:31 -26.12379 28.24149 5620 ft 175 kts
2026-05-01 14:31 -26.11199 28.24545 6306 ft 181 kts 10°
2026-05-01 14:31 -26.09963 28.24949 6958 ft 186 kts 10°
2026-05-01 14:31 -26.08731 28.25372 7702 ft 187 kts 10°
2026-05-01 14:32 -26.07463 28.25801 8436 ft 187 kts
2026-05-01 14:32 -26.06208 28.26224 9192 ft 192 kts
2026-05-01 14:32 -26.04846 28.26368 9526 ft 205 kts 346°
2026-05-01 14:32 -26.03419 28.25958 9717 ft 220 kts 330°
2026-05-01 14:33 -26.02098 28.25035 9904 ft 236 kts 313°
2026-05-01 14:33 -26.01095 28.23547 10374 ft 240 kts 295°
2026-05-01 14:33 -26.00527 28.21802 10952 ft 242 kts 279°
2026-05-01 14:33 -26.00506 28.19947 11533 ft 246 kts 266°
2026-05-01 14:34 -26.00711 28.18026 12076 ft 257 kts 264°
2026-05-01 14:34 -26.00968 28.15948 12239 ft 284 kts 264°
2026-05-01 14:34 -26.01260 28.13683 12426 ft 309 kts 263°
2026-05-01 14:34 -26.01582 28.11229 12645 ft 330 kts 263°
2026-05-01 14:35 -26.01918 28.08665 13148 ft 339 kts 263°
2026-05-01 14:35 -26.02259 28.06060 13905 ft 341 kts 263°
2026-05-01 14:35 -26.02600 28.03435 14504 ft 345 kts 263°
2026-05-01 14:35 -26.02999 28.00781 15030 ft 352 kts 256°
2026-05-01 14:36 -26.04003 27.98264 15547 ft 361 kts 240°
2026-05-01 14:36 -26.05635 27.96112 16131 ft 369 kts 226°
2026-05-01 14:36 -26.07526 27.94209 16663 ft 374 kts 224°
2026-05-01 14:36 -26.09536 27.92288 17177 ft 378 kts 223°
2026-05-01 14:37 -26.11530 27.90401 17677 ft 383 kts 223°
2026-05-01 14:37 -26.13567 27.88463 18181 ft 387 kts 223°
2026-05-01 14:37 -26.15610 27.86500 18668 ft 390 kts 223°
2026-05-01 14:37 -26.17666 27.84509 19149 ft 392 kts 224°
2026-05-01 14:38 -26.19724 27.82506 19658 ft 393 kts 224°
2026-05-01 14:38 -26.21783 27.80495 20153 ft 395 kts 224°
2026-05-01 14:38 -26.23853 27.78469 20636 ft 397 kts 224°
2026-05-01 14:38 -26.25931 27.76433 21111 ft 399 kts 224°
2026-05-01 14:39 -26.28029 27.74376 21589 ft 401 kts 224°
2026-05-01 14:39 -26.30133 27.72312 22083 ft 403 kts 224°
2026-05-01 14:39 -26.32243 27.70243 22563 ft 405 kts 224°
2026-05-01 14:39 -26.34361 27.68164 23022 ft 407 kts 224°
2026-05-01 14:40 -26.36465 27.66097 23485 ft 409 kts 224°
2026-05-01 14:40 -26.38607 27.63992 23920 ft 411 kts 224°
2026-05-01 14:40 -26.40761 27.61876 24301 ft 413 kts 224°
2026-05-01 14:40 -26.42920 27.59752 24689 ft 415 kts 224°
2026-05-01 14:41 -26.45088 27.57618 25060 ft 417 kts 224°
2026-05-01 14:41 -26.47223 27.55424 25437 ft 418 kts 226°
2026-05-01 14:41 -26.49329 27.53176 25801 ft 420 kts 226°
2026-05-01 14:41 -26.51433 27.50900 26171 ft 422 kts 226°
2026-05-01 14:42 -26.53541 27.48617 26535 ft 423 kts 226°
2026-05-01 14:42 -26.55661 27.46328 26899 ft 425 kts 226°
2026-05-01 14:42 -26.57801 27.44025 27238 ft 427 kts 226°
2026-05-01 14:42 -26.59952 27.41716 27570 ft 429 kts 226°
2026-05-01 14:43 -26.62111 27.39402 27916 ft 431 kts 226°
2026-05-01 14:43 -26.64282 27.37076 28241 ft 433 kts 226°
2026-05-01 14:43 -26.66463 27.34739 28553 ft 435 kts 226°
2026-05-01 14:43 -26.68652 27.32391 28868 ft 437 kts 226°
2026-05-01 14:44 -26.70822 27.30063 29172 ft 439 kts 226°
2026-05-01 14:44 -26.75252 27.25305 29817 ft 441 kts 226°
2026-05-01 14:44 -26.77462 27.22930 30269 ft 439 kts 226°
2026-05-01 14:45 -26.79662 27.20565 30693 ft 437 kts 226°
2026-05-01 14:45 -26.84043 27.15847 31296 ft 438 kts 227°
2026-05-01 14:45 -26.86240 27.13480 31625 ft 438 kts 227°
2026-05-01 14:46 -26.88438 27.11109 31993 ft 437 kts 227°
2026-05-01 14:46 -26.92812 27.06390 32649 ft 437 kts 228°
2026-05-01 14:46 -26.95002 27.04025 32974 ft 436 kts 228°
2026-05-01 14:47 -26.97178 27.01661 33306 ft 435 kts 229°
2026-05-01 14:47 -26.99344 26.99284 33649 ft 435 kts 229°
2026-05-01 14:47 -27.01501 26.96908 33981 ft 434 kts 229°
2026-05-01 14:48 -27.05772 26.92195 34592 ft 432 kts 230°
2026-05-01 14:48 -27.07912 26.89833 34925 ft 430 kts 230°
2026-05-01 14:48 -27.12163 26.85143 35517 ft 427 kts 230°
2026-05-01 14:49 -27.16389 26.80476 36095 ft 425 kts 231°
2026-05-01 14:49 -27.20588 26.75834 36646 ft 422 kts 231°
2026-05-01 14:50 -27.23360 26.72767 36981 ft 421 kts 231°
2026-05-01 14:50 -27.28906 26.66624 37644 ft 419 kts 231°
2026-05-01 14:51 -27.30980 26.64323 37874 ft 419 kts 232°
2026-05-01 14:51 -27.35128 26.59719 38156 ft 421 kts 232°
2026-05-01 14:52 -27.41375 26.52774 38163 ft 419 kts 232°
2026-05-01 14:53 -27.47579 26.45872 38164 ft 416 kts 232°
2026-05-01 14:53 -27.51686 26.41294 38161 ft 415 kts 232°
2026-05-01 14:54 -27.55753 26.36754 38164 ft 414 kts 231°
2026-05-01 14:54 -27.59847 26.32179 38170 ft 415 kts 231°
2026-05-01 14:55 -27.63952 26.27586 38167 ft 416 kts 231°
2026-05-01 14:55 -27.68068 26.22978 38167 ft 418 kts 231°
2026-05-01 14:56 -27.72204 26.18340 38168 ft 420 kts 231°
2026-05-01 14:56 -27.76351 26.13687 38169 ft 421 kts 231°
2026-05-01 14:57 -27.80489 26.09038 38161 ft 422 kts 231°
2026-05-01 14:57 -27.86749 26.01996 38153 ft 423 kts 231°
2026-05-01 14:58 -27.90914 25.97304 38157 ft 422 kts 231°
2026-05-01 14:58 -27.95074 25.92610 38155 ft 421 kts 230°
2026-05-01 14:59 -27.99214 25.87935 38154 ft 420 kts 230°
2026-05-01 14:59 -28.03314 25.83300 38157 ft 418 kts 230°
2026-05-01 15:00 -28.09467 25.76328 38160 ft 416 kts 230°
2026-05-01 15:01 -28.13545 25.71699 38159 ft 414 kts 230°
2026-05-01 15:01 -28.17618 25.67070 38158 ft 414 kts 230°
2026-05-01 15:02 -28.21675 25.62454 38162 ft 413 kts 230°
2026-05-01 15:02 -28.25702 25.57868 38162 ft 413 kts 230°
2026-05-01 15:03 -28.29754 25.53247 38158 ft 413 kts 230°
2026-05-01 15:03 -28.33805 25.48622 38163 ft 413 kts 230°
2026-05-01 15:04 -28.37853 25.43996 38167 ft 413 kts 230°
2026-05-01 15:04 -28.41905 25.39359 38163 ft 414 kts 230°
2026-05-01 15:05 -28.45970 25.34702 38168 ft 414 kts 230°
2026-05-01 15:05 -28.50029 25.30047 38168 ft 414 kts 230°
2026-05-01 15:06 -28.54065 25.25413 38157 ft 415 kts 230°
2026-05-01 15:06 -28.58118 25.20754 38152 ft 414 kts 230°
2026-05-01 15:07 -28.62177 25.16083 38160 ft 414 kts 230°
2026-05-01 15:07 -28.65565 25.12179 38162 ft 414 kts 230°
2026-05-01 15:08 -28.69581 25.07547 38154 ft 413 kts 230°
2026-05-01 15:08 -28.73616 25.02887 38160 ft 412 kts 230°
2026-05-01 15:09 -28.77644 24.98228 38166 ft 412 kts 230°
2026-05-01 15:09 -28.81668 24.93569 38178 ft 411 kts 230°
2026-05-01 15:10 -28.85673 24.88925 38180 ft 410 kts 230°
2026-05-01 15:10 -28.91673 24.81960 38182 ft 410 kts 230°
2026-05-01 15:11 -28.97634 24.75027 38177 ft 409 kts 230°
2026-05-01 15:12 -29.01619 24.70385 38168 ft 409 kts 230°
2026-05-01 15:12 -29.07594 24.63416 38156 ft 408 kts 230°
2026-05-01 15:14 -29.17503 24.51831 38141 ft 408 kts 230°
2026-05-01 15:14 -29.23448 24.44865 38139 ft 408 kts 230°
2026-05-01 15:15 -29.31373 24.35558 38136 ft 408 kts 230°
2026-05-01 15:16 -29.39282 24.26250 38137 ft 407 kts 230°
2026-05-01 15:18 -29.49146 24.14607 38132 ft 406 kts 230°
2026-05-01 15:19 -29.56991 24.05323 38126 ft 405 kts 230°
2026-05-01 15:19 -29.62871 23.98351 38123 ft 404 kts 230°
2026-05-01 15:20 -29.68724 23.91397 38124 ft 402 kts 230°
2026-05-01 15:21 -29.72620 23.86763 38122 ft 401 kts 230°
2026-05-01 15:21 -29.76497 23.82145 38121 ft 401 kts 230°
2026-05-01 15:22 -29.82274 23.75253 38123 ft 400 kts 230°
2026-05-01 15:22 -29.86137 23.70638 38116 ft 399 kts 230°
2026-05-01 15:23 -29.89992 23.66027 38115 ft 398 kts 230°
2026-05-01 15:23 -29.93830 23.61431 38112 ft 398 kts 230°
2026-05-01 15:24 -29.97661 23.56837 38116 ft 397 kts 230°
2026-05-01 15:24 -30.01459 23.52278 38108 ft 396 kts 230°
2026-05-01 15:25 -30.05273 23.47694 38103 ft 395 kts 231°
2026-05-01 15:25 -30.09079 23.43115 38099 ft 395 kts 231°
2026-05-01 15:26 -30.12886 23.38529 38107 ft 395 kts 231°
2026-05-01 15:26 -30.16683 23.33949 38096 ft 394 kts 231°
2026-05-01 15:27 -30.20455 23.29395 38100 ft 394 kts 231°
2026-05-01 15:28 -30.26136 23.22525 38101 ft 394 kts 231°
2026-05-01 15:28 -30.29918 23.17944 38092 ft 393 kts 231°
2026-05-01 15:29 -30.35589 23.11065 38089 ft 393 kts 231°
2026-05-01 15:30 -30.43128 23.01902 38094 ft 392 kts 231°
2026-05-01 15:31 -30.54381 22.88183 38080 ft 391 kts 231°
2026-05-01 15:32 -30.61856 22.79043 38076 ft 390 kts 231°
2026-05-01 15:34 -30.73005 22.65368 38079 ft 388 kts 231°